| time (UTC) | temp F | wind direction | speed knots | gust knots | rain 1hr in | rain 24hr in | rain mn in | humidity % | barometer mb |
| 20260904145334 | 88 | 145 | 3.5 | 7.8 | 0.00 | 0.00 | 0.00 | 55 | 1010.9 |
| 20260904144339 | 88 | 192 | 3.5 | 7.8 | 0.00 | 0.00 | 0.00 | 56 | 1010.9 |
| 20260904143326 | 87 | 113 | 2.6 | 8.7 | 0.00 | 0.00 | 0.00 | 57 | 1010.8 |
| 20260904142338 | 87 | 104 | 3.5 | 7.8 | 0.00 | 0.00 | 0.00 | 58 | 1010.7 |
| 20260904141344 | 86 | 169 | 3.5 | 7.0 | 0.00 | 0.00 | 0.00 | 59 | 1010.6 |
| 20260904140351 | 85 | 145 | 2.6 | 6.1 | 0.00 | 0.00 | 0.00 | 60 | 1010.5 |
| 20260904135357 | 85 | 133 | 0.9 | 7.8 | 0.00 | 0.00 | 0.00 | 60 | 1010.4 |
| 20260904134402 | 85 | 131 | 1.7 | 6.1 | 0.00 | 0.00 | 0.00 | 60 | 1010.3 |
| 20260904133349 | 85 | 159 | 2.6 | 6.1 | 0.00 | 0.00 | 0.00 | 60 | 1010.0 |
| 20260904132359 | 84 | 116 | 0.0 | 5.2 | 0.00 | 0.00 | 0.00 | 60 | 1009.9 |
| 20260904131346 | 84 | 146 | 0.9 | 4.3 | 0.00 | 0.00 | 0.00 | 60 | 1009.7 |
| 20260904130330 | 84 | 83 | 1.7 | 5.2 | 0.00 | 0.00 | 0.00 | 60 | 1009.6 |
| 20260904125336 | 85 | 94 | 0.0 | 2.6 | 0.00 | 0.00 | 0.00 | 59 | 1009.4 |
| 20260904124347 | 85 | 136 | 1.7 | 6.1 | 0.00 | 0.00 | 0.00 | 59 | 1009.2 |
| 20260904123332 | 85 | 113 | 1.7 | 5.2 | 0.00 | 0.00 | 0.00 | 59 | 1009.2 |
| 20260904122338 | 85 | 145 | 0.0 | 2.6 | 0.00 | 0.00 | 0.00 | 58 | 1009.0 |
| 20260904121325 | 85 | 115 | 0.9 | 2.6 | 0.00 | 0.00 | 0.00 | 58 | 1009.0 |
| 20260904120337 | 85 | 109 | 0.9 | 6.1 | 0.00 | 0.00 | 0.00 | 58 | 1008.9 |
| 20260904115344 | 85 | 94 | 1.7 | 5.2 | 0.00 | 0.00 | 0.00 | 57 | 1009.0 |
| 20260904114351 | 85 | 84 | 0.9 | 3.5 | 0.00 | 0.00 | 0.00 | 57 | 1008.9 |
| 20260904113339 | 86 | 71 | 0.0 | 1.7 | 0.00 | 0.00 | 0.00 | 56 | 1008.9 |
| 20260904112330 | 86 | 74 | 0.0 | 5.2 | 0.00 | 0.00 | 0.00 | 56 | 1008.9 |
| 20260904111336 | 86 | 119 | 3.5 | 7.0 | 0.00 | 0.00 | 0.00 | 56 | 1008.9 |
| 20260904110344 | 86 | 111 | 0.9 | 2.6 | 0.00 | 0.00 | 0.00 | 55 | 1008.8 |
| 20260904105330 | 86 | 111 | 0.9 | 2.6 | 0.00 | 0.00 | 0.00 | 55 | 1008.8 |
| 20260904104340 | 86 | 59 | 0.0 | 4.3 | 0.00 | 0.00 | 0.00 | 54 | 1008.8 |
| 20260904103327 | 86 | 107 | 1.7 | 6.1 | 0.00 | 0.00 | 0.00 | 54 | 1008.7 |
| 20260904102334 | 86 | 112 | 2.6 | 7.0 | 0.00 | 0.00 | 0.00 | 54 | 1008.6 |
| 20260904101401 | 86 | 92 | 2.6 | 6.1 | 0.00 | 0.00 | 0.00 | 54 | 1008.4 |
| 20260904100331 | 87 | 109 | 1.7 | 6.1 | 0.00 | 0.00 | 0.00 | 54 | 1008.3 |
| 20260904095337 | 86 | 144 | 0.9 | 4.3 | 0.00 | 0.00 | 0.00 | 54 | 1008.4 |
| 20260904094404 | 86 | 94 | 0.9 | 5.2 | 0.00 | 0.00 | 0.00 | 54 | 1008.4 |
| 20260904093351 | 86 | 88 | 0.9 | 3.5 | 0.00 | 0.00 | 0.00 | 55 | 1008.3 |
| 20260904092336 | 87 | 90 | 1.7 | 2.6 | 0.00 | 0.00 | 0.00 | 55 | 1008.3 |
| 20260904091327 | 87 | 85 | 1.7 | 3.5 | 0.00 | 0.00 | 0.00 | 55 | 1008.2 |
| 20260904090334 | 87 | 46 | 0.9 | 3.5 | 0.00 | 0.00 | 0.00 | 55 | 1008.3 |
| 20260904085341 | 87 | 74 | 0.9 | 1.7 | 0.00 | 0.00 | 0.00 | 54 | 1008.2 |
| 20260904084331 | 87 | 65 | 0.0 | 1.7 | 0.00 | 0.00 | 0.00 | 54 | 1008.2 |
| 20260904083339 | 87 | 69 | 0.0 | 0.9 | 0.00 | 0.00 | 0.00 | 53 | 1008.4 |
| 20260904082347 | 88 | 69 | 0.0 | 2.6 | 0.00 | 0.00 | 0.00 | 53 | 1008.5 |
| 20260904081331 | 88 | 78 | 0.0 | 2.6 | 0.00 | 0.00 | 0.00 | 52 | 1008.5 |
| 20260904080336 | 88 | 88 | 0.0 | 2.6 | 0.00 | 0.00 | 0.00 | 51 | 1008.5 |
| 20260904075348 | 89 | 43 | 0.9 | 2.6 | 0.00 | 0.00 | 0.00 | 51 | 1008.4 |
| 20260904074332 | 89 | 59 | 0.9 | 1.7 | 0.00 | 0.00 | 0.00 | 50 | 1008.3 |
| 20260904073358 | 89 | 48 | 0.0 | 3.5 | 0.00 | 0.00 | 0.00 | 48 | 1008.3 |
| 20260904072404 | 90 | 74 | 0.0 | 0.9 | 0.00 | 0.00 | 0.00 | 47 | 1008.4 |
| 20260904071330 | 90 | 74 | 0.0 | 0.9 | 0.00 | 0.00 | 0.00 | 46 | 1008.4 |
| 20260904070341 | 91 | 74 | 0.0 | 0.9 | 0.00 | 0.00 | 0.00 | 45 | 1008.3 |
| 20260904065327 | 91 | 74 | 0.0 | 0.9 | 0.00 | 0.00 | 0.00 | 45 | 1008.2 |
| 20260904064333 | 91 | 182 | 0.0 | 0.9 | 0.00 | 0.00 | 0.00 | 44 | 1008.1 |
| 20260904063340 | 92 | 183 | 0.0 | 0.9 | 0.00 | 0.00 | 0.00 | 43 | 1008.0 |
| 20260904062351 | 92 | 182 | 0.0 | 1.7 | 0.00 | 0.00 | 0.00 | 43 | 1008.0 |
| 20260904061336 | 92 | 155 | 0.0 | 4.3 | 0.00 | 0.00 | 0.00 | 43 | 1007.9 |
| 20260904060344 | 92 | 203 | 2.6 | 7.8 | 0.00 | 0.00 | 0.00 | 42 | 1007.9 |
| 20260904055331 | 93 | 88 | 1.7 | 4.3 | 0.00 | 0.00 | 0.00 | 42 | 1007.8 |
| 20260904054343 | 93 | 177 | 2.6 | 6.1 | 0.00 | 0.00 | 0.00 | 41 | 1007.7 |
| 20260904053329 | 93 | 171 | 2.6 | 6.1 | 0.00 | 0.00 | 0.00 | 41 | 1007.7 |
| 20260904052336 | 93 | 204 | 1.7 | 3.5 | 0.00 | 0.00 | 0.00 | 39 | 1007.7 |
| 20260904051327 | 93 | 186 | 2.6 | 6.1 | 0.00 | 0.00 | 0.00 | 38 | 1007.6 |
| 20260904050333 | 93 | 165 | 1.7 | 5.2 | 0.00 | 0.00 | 0.00 | 38 | 1007.6 |
| 20260904045402 | 93 | 186 | 1.7 | 4.3 | 0.00 | 0.00 | 0.00 | 38 | 1007.5 |
| 20260904044328 | 93 | 218 | 1.7 | 4.3 | 0.00 | 0.00 | 0.00 | 38 | 1007.5 |
| 20260904043334 | 93 | 178 | 0.9 | 2.6 | 0.00 | 0.00 | 0.00 | 39 | 1007.5 |
| 20260904042345 | 93 | 145 | 0.0 | 1.7 | 0.00 | 0.00 | 0.00 | 40 | 1007.5 |
| 20260904041351 | 93 | 153 | 0.0 | 1.7 | 0.00 | 0.00 | 0.00 | 40 | 1007.4 |
| 20260904040336 | 93 | 139 | 0.9 | 2.6 | 0.00 | 0.00 | 0.00 | 40 | 1007.3 |
| 20260904035343 | 93 | 140 | 2.6 | 4.3 | 0.00 | 0.00 | 0.00 | 40 | 1007.3 |
| 20260904034334 | 93 | 114 | 0.9 | 2.6 | 0.00 | 0.00 | 0.00 | 40 | 1007.1 |
| 20260904033342 | 93 | 126 | 0.9 | 2.6 | 0.00 | 0.00 | 0.00 | 40 | 1006.9 |
| 20260904032329 | 93 | 117 | 1.7 | 5.2 | 0.00 | 0.00 | 0.00 | 40 | 1006.8 |
| 20260904031335 | 93 | 112 | 0.9 | 2.6 | 0.00 | 0.00 | 0.00 | 40 | 1006.8 |
| 20260904030345 | 93 | 184 | 0.0 | 6.1 | 0.00 | 0.00 | 0.00 | 39 | 1006.7 |
| 20260904025332 | 94 | 150 | 4.3 | 7.8 | 0.00 | 0.00 | 0.00 | 38 | 1006.5 |
| 20260904024340 | 94 | 153 | 1.7 | 7.0 | 0.00 | 0.00 | 0.00 | 38 | 1006.5 |
| 20260904023328 | 95 | 144 | 1.7 | 10.4 | 0.00 | 0.00 | 0.00 | 37 | 1006.2 |
| 20260904022339 | 95 | 136 | 7.0 | 10.4 | 0.00 | 0.00 | 0.00 | 37 | 1006.1 |
| 20260904021327 | 96 | 149 | 3.5 | 11.3 | 0.00 | 0.00 | 0.00 | 37 | 1006.0 |
| 20260904020354 | 97 | 158 | 5.2 | 8.7 | 0.00 | 0.00 | 0.00 | 36 | 1006.0 |
| 20260904015359 | 97 | 158 | 3.5 | 9.6 | 0.00 | 0.00 | 0.00 | 35 | 1005.9 |
| 20260904014329 | 99 | 101 | 4.3 | 12.2 | 0.00 | 0.00 | 0.00 | 33 | 1005.8 |
| 20260904013336 | 100 | 177 | 0.0 | 2.6 | 0.00 | 0.00 | 0.00 | 29 | 1005.7 |
| 20260904012342 | 100 | 254 | 0.9 | 6.1 | 0.00 | 0.00 | 0.00 | 29 | 1005.7 |
| 20260904011351 | 100 | 236 | 1.7 | 3.5 | 0.00 | 0.00 | 0.00 | 28 | 1005.7 |
| 20260904010337 | 101 | 232 | 2.6 | 6.1 | 0.00 | 0.00 | 0.00 | 28 | 1005.6 |
| 20260904005328 | 101 | 235 | 0.9 | 5.2 | 0.00 | 0.00 | 0.00 | 28 | 1005.7 |
| 20260904004336 | 101 | 175 | 1.7 | 6.1 | 0.00 | 0.00 | 0.00 | 29 | 1005.8 |
| 20260904003343 | 101 | 242 | 3.5 | 7.0 | 0.00 | 0.00 | 0.00 | 28 | 1005.7 |
| 20260904002350 | 102 | 269 | 2.6 | 5.2 | 0.00 | 0.00 | 0.00 | 27 | 1005.7 |
| 20260904001340 | 102 | 289 | 2.6 | 7.0 | 0.00 | 0.00 | 0.00 | 27 | 1005.7 |
| 20260904000328 | 103 | 145 | 1.7 | 4.3 | 0.00 | 0.00 | 0.00 | 27 | 1005.8 |
| 20260903235354 | 103 | 36 | 1.7 | 4.3 | 0.00 | 0.00 | 0.00 | 27 | 1005.9 |
| 20260903234340 | 102 | 283 | 0.9 | 3.5 | 0.00 | 0.00 | 0.00 | 27 | 1005.9 |
| 20260903233331 | 102 | 292 | 1.7 | 7.0 | 0.00 | 0.00 | 0.00 | 28 | 1006.0 |
| 20260903232336 | 102 | 320 | 3.5 | 7.0 | 0.00 | 0.00 | 0.00 | 28 | 1006.1 |
| 20260903231343 | 102 | 223 | 2.6 | 8.7 | 0.00 | 0.00 | 0.00 | 27 | 1006.2 |
| 20260903230349 | 103 | 249 | 1.7 | 7.8 | 0.00 | 0.00 | 0.00 | 28 | 1006.4 |
| 20260903225338 | 102 | 182 | 5.2 | 10.4 | 0.00 | 0.00 | 0.00 | 28 | 1006.4 |
| 20260903224405 | 102 | 150 | 3.5 | 8.7 | 0.00 | 0.00 | 0.00 | 28 | 1006.5 |
| 20260903223332 | 101 | 271 | 3.5 | 7.0 | 0.00 | 0.00 | 0.00 | 29 | 1006.7 |
| 20260903222340 | 101 | 234 | 0.9 | 6.1 | 0.00 | 0.00 | 0.00 | 29 | 1006.8 |
| 20260903221332 | 101 | 218 | 5.2 | 8.7 | 0.00 | 0.00 | 0.00 | 29 | 1006.9 |
| 20260903220339 | 100 | 134 | 2.6 | 8.7 | 0.00 | 0.00 | 0.00 | 30 | 1007.0 |
| 20260903215406 | 99 | 150 | 0.9 | 5.2 | 0.00 | 0.00 | 0.00 | 30 | 1007.3 |
| 20260903214333 | 100 | 244 | 1.7 | 7.8 | 0.00 | 0.00 | 0.00 | 30 | 1007.5 |
| 20260903213340 | 99 | 157 | 4.3 | 11.3 | 0.00 | 0.00 | 0.00 | 30 | 1007.7 |
| 20260903212332 | 99 | 277 | 0.9 | 8.7 | 0.00 | 0.00 | 0.00 | 30 | 1007.7 |
| 20260903211341 | 99 | 98 | 4.3 | 9.6 | 0.00 | 0.00 | 0.00 | 30 | 1007.9 |
| 20260903210328 | 99 | 169 | 2.6 | 7.0 | 0.00 | 0.00 | 0.00 | 31 | 1008.1 |
| 20260903205354 | 100 | 136 | 1.7 | 8.7 | 0.00 | 0.00 | 0.00 | 30 | 1008.2 |
| 20260903204403 | 99 | 190 | 3.5 | 10.4 | 0.00 | 0.00 | 0.00 | 30 | 1008.4 |
| 20260903203349 | 99 | 202 | 1.7 | 7.0 | 0.00 | 0.00 | 0.00 | 30 | 1008.6 |
| 20260903202335 | 100 | 234 | 5.2 | 13.0 | 0.00 | 0.00 | 0.00 | 29 | 1008.7 |
| 20260903201343 | 99 | 84 | 3.5 | 9.6 | 0.00 | 0.00 | 0.00 | 31 | 1008.9 |
| 20260903200355 | 100 | 145 | 5.2 | 10.4 | 0.00 | 0.00 | 0.00 | 31 | 1008.9 |
| 20260903195402 | 99 | 32 | 0.9 | 12.2 | 0.00 | 0.00 | 0.00 | 30 | 1009.0 |
| 20260903194328 | 99 | 153 | 4.3 | 8.7 | 0.00 | 0.00 | 0.00 | 31 | 1009.2 |
| 20260903193336 | 98 | 227 | 2.6 | 12.2 | 0.00 | 0.00 | 0.00 | 30 | 1009.4 |
| 20260903192343 | 98 | 227 | 1.7 | 8.7 | 0.00 | 0.00 | 0.00 | 33 | 1009.5 |
| 20260903191335 | 99 | 163 | 6.1 | 10.4 | 0.00 | 0.00 | 0.00 | 31 | 1009.7 |
| 20260903190340 | 99 | 192 | 4.3 | 8.7 | 0.00 | 0.00 | 0.00 | 31 | 1009.9 |
| 20260903185327 | 98 | 227 | 0.9 | 7.8 | 0.00 | 0.00 | 0.00 | 30 | 1010.1 |
| 20260903184333 | 98 | 231 | 5.2 | 7.8 | 0.00 | 0.00 | 0.00 | 31 | 1010.2 |
| 20260903183343 | 97 | 111 | 4.3 | 8.7 | 0.00 | 0.00 | 0.00 | 33 | 1010.3 |
| 20260903182352 | 97 | 49 | 1.7 | 11.3 | 0.00 | 0.00 | 0.00 | 34 | 1010.5 |
| 20260903181339 | 97 | 246 | 1.7 | 5.2 | 0.00 | 0.00 | 0.00 | 33 | 1010.7 |
| 20260903180345 | 96 | 194 | 0.9 | 7.8 | 0.00 | 0.00 | 0.00 | 36 | 1010.9 |
| 20260903175336 | 95 | 142 | 5.2 | 8.7 | 0.00 | 0.00 | 0.00 | 35 | 1011.1 |
| 20260903174403 | 95 | 245 | 4.3 | 9.6 | 0.00 | 0.00 | 0.00 | 37 | 1011.1 |
| 20260903173329 | 94 | 80 | 3.5 | 9.6 | 0.00 | 0.00 | 0.00 | 41 | 1011.2 |
| 20260903172336 | 94 | 162 | 6.1 | 9.6 | 0.00 | 0.00 | 0.00 | 40 | 1011.3 |
| 20260903171326 | 94 | 124 | 3.5 | 11.3 | 0.00 | 0.00 | 0.00 | 40 | 1011.2 |
| 20260903170353 | 94 | 140 | 6.1 | 8.7 | 0.00 | 0.00 | 0.00 | 41 | 1011.2 |
| 20260903165340 | 93 | 161 | 2.6 | 7.8 | 0.00 | 0.00 | 0.00 | 43 | 1011.3 |
| 20260903164406 | 93 | 152 | 3.5 | 7.8 | 0.00 | 0.00 | 0.00 | 43 | 1011.4 |
| 20260903163333 | 93 | 148 | 3.5 | 6.1 | 0.00 | 0.00 | 0.00 | 44 | 1011.3 |
| 20260903162344 | 92 | 92 | 2.6 | 8.7 | 0.00 | 0.00 | 0.00 | 44 | 1011.4 |
| 20260903161351 | 92 | 173 | 3.5 | 6.1 | 0.00 | 0.00 | 0.00 | 45 | 1011.5 |
| 20260903160358 | 91 | 123 | 2.6 | 6.1 | 0.00 | 0.00 | 0.00 | 46 | 1011.4 |
| 20260903155345 | 91 | 117 | 2.6 | 7.0 | 0.00 | 0.00 | 0.00 | 46 | 1011.5 |
| 20260903154335 | 91 | 120 | 1.7 | 7.0 | 0.00 | 0.00 | 0.00 | 47 | 1011.6 |
| 20260903153344 | 91 | 64 | 3.5 | 6.1 | 0.00 | 0.00 | 0.00 | 47 | 1011.5 |
| 20260903152351 | 91 | 52 | 0.9 | 5.2 | 0.00 | 0.00 | 0.00 | 47 | 1011.6 |
| 20260903151337 | 91 | 109 | 2.6 | 5.2 | 0.00 | 0.00 | 0.00 | 48 | 1011.6 |
| 20260903150329 | 89 | 333 | 0.9 | 1.7 | 0.00 | 0.00 | 0.00 | 49 | 1011.6 |